Pascagoula, MS

9:58 PM CDT on April 27, 2017 (GMT -0500)
Lott International

Weather History for KPQL - May, 2014

Change the Weather History Date:

Friday, May 2, 2014

  Actual Average Record
Temperature  
Mean Temperature 64 °F -  
Max Temperature 75 °F 80 °F 86 °F (1955)
Min Temperature 55 °F 63 °F 44 °F (1999)
Degree Days  
Heating Degree Days 1    
Growing Degree Days 14 (Base 50)    
Moisture  
Dew Point 52 °F    
Average Humidity 66    
Maximum Humidity 93    
Minimum Humidity 34    
Precipitation  
Precipitation 0.00 in - - ()
Sea Level Pressure  
Sea Level Pressure 30.00 in    
Wind  
Wind Speed 3 mph (NNW)    
Max Wind Speed 8 mph    
Max Gust Speed -    
Visibility 10 miles    
Events      
Averages and records for this station are not official NWS values.
T = Trace of Precipitation, MM = Missing Value Source: NWS Daily Summary

Daily Weather History Graph

Daily Weather History Graph

Search for Another Location

Airport or City:

Trip Planner

Search our weather history database for the weather conditions in past years. The results will help you decide how hot, cold, wet, or windy it might be!

Date:

Astronomy

May. 02, 2014 Rise Set
Actual Time 6:09 AM CDT 7:32 PM CDT
Civil Twilight 5:44 AM CDT 7:58 PM CDT
Nautical Twilight 5:13 AM CDT 8:29 PM CDT
Astronomical Twilight 4:42 AM CDT 9:00 PM CDT
Moon 8:51 AM CDT (5/2) 10:51 PM CDT (5/2)
Length of Visible Light 14h 14m
Length of Day
13h 23m
Waxing Crescent, 12% of the Moon is Illuminated
May 2
Waxing Crescent
May 6
First Quarter
May 14
Full
May 21
Last Quarter
May 28
New

Hourly Weather History & Observations

Time (CDT) Temp. Dew Point Humidity Pressure Visibility Wind Dir Wind Speed Gust Speed Precip Events Conditions
12:53 AM 61.0 °F 57.9 °F 90% 30.03 in 10.0 mi North 3.5 mph - 0.00 in   Scattered Clouds
1:53 AM 61.0 °F 57.0 °F 87% 30.02 in 10.0 mi Calm Calm - N/A   Clear
2:53 AM 61.0 °F 57.9 °F 90% 30.00 in 10.0 mi Calm Calm - N/A   Overcast
3:53 AM 61.0 °F 57.0 °F 87% 30.01 in 10.0 mi Calm Calm - 0.00 in   Overcast
4:53 AM 59.0 °F 55.9 °F 90% 30.00 in 10.0 mi Calm Calm - N/A   Mostly Cloudy
5:53 AM 57.0 °F 54.0 °F 89% 29.99 in 10.0 mi Calm Calm - N/A   Clear
6:53 AM 55.9 °F 54.0 °F 93% 30.00 in 10.0 mi NNE 3.5 mph - N/A   Clear
7:53 AM 62.1 °F 51.1 °F 67% 30.01 in 10.0 mi North 5.8 mph - N/A   Clear
8:53 AM 66.9 °F 48.0 °F 51% 30.02 in 10.0 mi North 8.1 mph - N/A   Scattered Clouds
9:53 AM 69.1 °F 45.0 °F 42% 30.02 in 10.0 mi North 4.6 mph - N/A   Scattered Clouds
10:53 AM 72.0 °F 43.0 °F 35% 30.02 in 10.0 mi NNE 8.1 mph - N/A   Scattered Clouds
11:53 AM 73.0 °F 43.0 °F 34% 30.01 in 10.0 mi NW 3.5 mph - N/A   Partly Cloudy
12:53 PM 73.9 °F 44.1 °F 34% 30.00 in 10.0 mi NW 5.8 mph - N/A   Clear
1:53 PM 73.9 °F 44.1 °F 34% 29.99 in 10.0 mi Variable 4.6 mph - N/A   Clear
2:53 PM 73.9 °F 44.1 °F 34% 29.96 in 10.0 mi Variable 3.5 mph - N/A   Clear
3:53 PM 71.1 °F 52.0 °F 51% 29.94 in 10.0 mi SSW 4.6 mph - N/A   Clear
4:53 PM 70.0 °F 52.0 °F 53% 29.96 in 10.0 mi SSW 8.1 mph - N/A   Scattered Clouds
5:53 PM 69.1 °F 51.1 °F 53% 29.94 in 10.0 mi SSW 3.5 mph - N/A   Clear
7:53 PM 64.9 °F 55.9 °F 73% 29.97 in 10.0 mi Calm Calm - N/A   Clear
8:53 PM 62.1 °F 57.9 °F 86% 29.99 in 10.0 mi Calm Calm - N/A   Clear
9:53 PM 62.1 °F 57.9 °F 86% 30.00 in 10.0 mi Calm Calm - N/A   Clear
10:53 PM 62.1 °F 57.0 °F 84% 30.01 in 10.0 mi Calm Calm - N/A   Overcast
11:53 PM 62.1 °F 57.0 °F 84% 30.02 in 10.0 mi Calm Calm - N/A   Overcast